Alexandria, LA

3:11 PM CST on November 24, 2017 (GMT -0600)
Alexandria International

Weather History for KAEX - January, 2014

Change the Weather History Date:

Friday, January 10, 2014

  Actual Average Record
Temperature  
Mean Temperature 58 °F 49 °F  
Max Temperature 67 °F 59 °F 81 °F (1907)
Min Temperature 48 °F 39 °F 10 °F (1962)
Degree Days  
Heating Degree Days 7 16  
Month to date heating degree days 231 160  
Since 1 July heating degree days 1116 949  
Growing Degree Days 7 (Base 50)    
Moisture  
Dew Point 57 °F    
Average Humidity 93    
Maximum Humidity 100    
Minimum Humidity 86    
Precipitation  
Precipitation 0.47 in 0.15 in 6.16 in (1925)
Month to date precipitation 0.73 1.48  
Year to date precipitation 0.73 1.48  
Snow  
Snow 0.00 in - 1.00 in (1973)
Month to date snowfall 0.0  
Since 1 July snowfall 0.0  
Snow Depth 0.00 in    
Sea Level Pressure  
Sea Level Pressure 29.95 in    
Wind  
Wind Speed 9 mph (SSE)    
Max Wind Speed 20 mph    
Max Gust Speed 23 mph    
Visibility 5 miles    
Events Fog , Rain , Thunderstorm    
T = Trace of Precipitation, MM = Missing Value Source: NWS Daily Summary

Daily Weather History Graph

Daily Weather History Graph

Search for Another Location

Airport or City:

Trip Planner

Search our weather history database for the weather conditions in past years. The results will help you decide how hot, cold, wet, or windy it might be!

Date:

Astronomy

Jan. 10, 2014 Rise Set
Actual Time 7:10 AM CST 5:25 PM CST
Civil Twilight 6:43 AM CST 5:52 PM CST
Nautical Twilight 6:13 AM CST 6:22 PM CST
Astronomical Twilight 5:44 AM CST 6:51 PM CST
Moon 1:25 PM CST (1/10) 2:24 AM CST (1/10)
Length of Visible Light 11h 08m
Length of Day
10h 15m
Waxing Gibbous, 75% of the Moon is Illuminated
Jan 10
Waxing Gibbous
Jan 15
Full
Jan 23
Last Quarter
Jan 30
New
Feb 6
First Quarter

Hourly Weather History & Observations

Time (CST) Temp. Dew Point Humidity Pressure Visibility Wind Dir Wind Speed Gust Speed Precip Events Conditions
12:01 AM 51.8 °F 48.2 °F 88% 30.14 in 10.0 mi SE 8.1 mph - N/A   Mostly Cloudy
12:28 AM 48.2 °F 46.4 °F 93% 30.14 in 10.0 mi SE 8.1 mph - N/A   Scattered Clouds
12:53 AM 48.9 °F 46.0 °F 90% 30.14 in 10.0 mi SE 9.2 mph - N/A   Clear
1:53 AM 50.0 °F 46.9 °F 89% 30.13 in 7.0 mi SE 8.1 mph - N/A   Scattered Clouds
2:01 AM 51.8 °F 48.2 °F 88% 30.11 in 7.0 mi SE 9.2 mph - N/A   Mostly Cloudy
2:53 AM 52.0 °F 48.9 °F 89% 30.11 in 6.0 mi ESE 8.1 mph - N/A   Overcast
3:53 AM 52.0 °F 48.9 °F 89% 30.10 in 6.0 mi ESE 5.8 mph - N/A   Overcast
4:03 AM 51.8 °F 48.2 °F 88% 30.09 in 5.0 mi ESE 6.9 mph - N/A   Overcast
4:53 AM 52.0 °F 51.1 °F 97% 30.08 in 3.0 mi SE 12.7 mph - N/A   Overcast
5:02 AM 51.8 °F 51.8 °F 100% 30.07 in 3.0 mi SE 9.2 mph - N/A   Overcast
5:10 AM 51.8 °F 51.8 °F 100% 30.07 in 2.5 mi SE 9.2 mph - N/A   Overcast
5:21 AM 51.8 °F 51.8 °F 100% 30.06 in 1.0 mi SE 10.4 mph - N/A   Overcast
5:29 AM 51.8 °F 51.8 °F 100% 30.06 in 0.8 mi SE 9.2 mph - N/A   Mist
5:53 AM 51.1 °F 51.1 °F 100% 30.06 in 0.5 mi SE 9.2 mph - N/A Fog Fog
6:04 AM 51.8 °F 51.8 °F 100% 30.05 in 0.2 mi SE 10.4 mph - N/A Fog Fog
6:31 AM 51.8 °F 51.8 °F 100% 30.05 in 0.5 mi SE 10.4 mph - N/A Fog Fog
6:53 AM 51.1 °F 51.1 °F 100% 30.06 in 0.8 mi SE 11.5 mph - N/A   Mist
7:46 AM 51.8 °F 51.8 °F 100% 30.07 in 0.2 mi SE 10.4 mph - N/A Fog Fog
7:53 AM 52.0 °F 52.0 °F 100% 30.08 in 0.2 mi SE 9.2 mph - N/A Fog Fog
8:53 AM 52.0 °F 52.0 °F 100% 30.08 in 0.2 mi ESE 8.1 mph - N/A Fog Fog
9:53 AM 53.1 °F 53.1 °F 100% 30.07 in 0.5 mi ESE 9.2 mph - N/A Fog Fog
10:14 AM 53.6 °F 53.6 °F 100% 30.04 in 1.5 mi SSE 9.2 mph - N/A   Overcast
10:26 AM 55.4 °F 55.4 °F 100% 30.03 in 2.5 mi SE 15.0 mph - N/A   Overcast
10:38 AM 55.4 °F 55.4 °F 100% 30.01 in 3.0 mi SE 15.0 mph - N/A   Overcast
10:53 AM 55.9 °F 55.9 °F 100% 30.02 in 4.0 mi SE 17.3 mph - N/A   Overcast
11:53 AM 59.0 °F 55.9 °F 90% 29.97 in 6.0 mi SSE 13.8 mph 19.6 mph N/A   Overcast
12:53 PM 59.0 °F 57.0 °F 93% 29.92 in 5.0 mi SE 13.8 mph - N/A   Overcast
1:21 PM 60.8 °F 57.2 °F 88% 29.89 in 6.0 mi SE 11.5 mph - N/A   Overcast
1:53 PM 61.0 °F 57.9 °F 90% 29.88 in 7.0 mi SSE 10.4 mph - N/A   Overcast
2:13 PM 60.8 °F 60.8 °F 100% 29.86 in 2.0 mi SSE 10.4 mph - 0.00 in Rain Light Rain
2:19 PM 60.8 °F 60.8 °F 100% 29.86 in 3.0 mi SSE 8.1 mph - 0.01 in Rain Light Rain
2:41 PM 62.6 °F 60.8 °F 94% 29.86 in 2.5 mi SSE 8.1 mph - 0.01 in Rain Light Rain
2:53 PM 62.1 °F 61.0 °F 96% 29.87 in 2.5 mi South 5.8 mph - 0.01 in   Overcast
3:53 PM 64.9 °F 62.1 °F 90% 29.86 in 9.0 mi South 8.1 mph - 0.00 in Rain Light Rain
4:03 PM 64.4 °F 62.6 °F 94% 29.85 in 10.0 mi South 8.1 mph - N/A   Overcast
4:53 PM 66.0 °F 62.1 °F 87% 29.86 in 10.0 mi South 9.2 mph - N/A   Overcast
5:53 PM 64.0 °F 63.0 °F 96% 29.84 in 7.0 mi SSE 4.6 mph - 0.00 in Rain Light Rain
6:09 PM 64.4 °F 62.6 °F 94% 29.83 in 9.0 mi SSE 5.8 mph - 0.00 in   Overcast
6:53 PM 64.0 °F 63.0 °F 96% 29.83 in 10.0 mi SSE 11.5 mph - 0.00 in   Overcast
7:26 PM 64.4 °F 62.6 °F 94% 29.82 in 10.0 mi SSE 6.9 mph - 0.00 in   Overcast
7:42 PM 64.4 °F 62.6 °F 94% 29.81 in 10.0 mi SSE 8.1 mph - 0.00 in   Overcast
7:53 PM 64.9 °F 64.0 °F 97% 29.82 in 6.0 mi SSE 6.9 mph - 0.01 in Rain Light Rain
8:43 PM 64.4 °F 62.6 °F 94% 29.78 in 5.0 mi SSE 6.9 mph - 0.09 in Rain , Thunderstorm Heavy Rain
8:53 PM 64.0 °F 63.0 °F 96% 29.81 in 6.0 mi South 6.9 mph - 0.11 in Rain , Thunderstorm Light Thunderstorms and Rain
9:22 PM 64.4 °F 62.6 °F 94% 29.80 in 10.0 mi WSW 6.9 mph - 0.14 in Rain Light Rain
9:26 PM 64.4 °F 62.6 °F 94% 29.81 in 2.5 mi SSW 6.9 mph - 0.25 in Rain , Thunderstorm Heavy Thunderstorms and Rain
9:36 PM 64.4 °F 64.4 °F 100% 29.79 in 3.0 mi SSW 3.5 mph - 0.28 in Rain , Thunderstorm Light Thunderstorms and Rain
9:51 PM 64.4 °F 62.6 °F 94% 29.80 in 4.0 mi SSW 4.6 mph - 0.30 in Rain Light Rain
9:53 PM 64.0 °F 63.0 °F 96% 29.81 in 3.0 mi SSW 4.6 mph - 0.31 in Rain Heavy Rain
10:53 PM 64.9 °F 64.0 °F 97% 29.81 in 10.0 mi SW 9.2 mph 17.3 mph 0.03 in   Overcast
11:39 PM 66.2 °F 64.4 °F 94% 29.80 in 10.0 mi WSW 11.5 mph - N/A   Overcast
11:53 PM 66.0 °F 64.0 °F 93% 29.81 in 10.0 mi WSW 8.1 mph - N/A   Overcast